SL-14 DEB, 45270

Orbit data source: Space-Track

SL-14 DEB, 45270 is space debris in LEO originally from a launch on Thu, 15 Aug 1991 UTC launched from the Plesetsk Missile And Space Complex (PKMTR). Debris objects in space refer to the collection of defunct objects orbiting the Earth. Examples of debris include non-operational satellites, rocket bodies, and fragments generated from explosions, collisions, or faulty payload assembly.

Loading next visibility...
SL-14 DEB details
Identifier
45270, 1991-056G
Orbit
LEO
Last TLE update1 day ago
Origin
Flag of CISRosgidromet (CIS)
ManufacturerUnknown
MissionSpacecraft
Bus & MotorUnknown
MassUnknown
Launch date (UTC)
1991-08-15 (33 years ago)
Launch vehicleUnknown
Launch site
Plesetsk Missile And Space Complex (PKMTR)
Object type
Payload
Rocket body
Debris
Shape & HBRUnknown
Radar Cross SectionSmall (<0.1 m²)

Expand to show TLE details & history

TLE from 1 day ago
0 SL-14 DEB
1 45270U 91056G   24360.39598422  .00000291  00000-0  66875-3 0  9993
2 45270  82.5674 151.2367 0031126 321.8228  38.0693 13.22222947234840
Epoch: 2024-12-25T09:30Z
Definitive object data (Epoch: 2024-12-25T09:30:13.036Z)
Latitude0.00002°
Longitude-85.70795°
Altitude1,160.569 km
Speed7.282 km/s
True Right ascension10h 04m 56s
True Declination0° 00' 00"
Sunlit
Object was in daylight at TLE epoch
Visualization TLE readout
Latitude-12.20802°
Longitude95.17221°
Altitude1,195.59 km
Speed7.249 km/s
Apparent Right ascension21h 51m 38s
Apparent Declination-24° 48' 33"
Sunlit
Object is in daylight
Visualization observer readout
Local Sidereal Time09:26:09
Azimuth338.612° N
Elevation-73.976°
Doppler factor1
Orbital elements
Apogee altitude1,196.983 km
Perigee altitude1,149.973 km
Semi-major axis7,551.615 km
Eccentricity0.0031126
Inclination82.5674°
RAAN151.2367°
Arg. of periapsis321.8228°
True anomaly38.28991°
Mean anomaly38.0693°
Eccentric anomaly38.17954°
Mean motion3.30737 °/min
BSTAR0.00066875
Orbital period108.85 mins
Loading maneuver chart data...
Loading historical data...
Loading historical data...
Loading historical data...
Loading historical data...
Loading historical data...
Loading historical data...
Loading historical data...

SL-14 DEB Visibility forecast

Observer location: undefined°, undefined

Span
Click to sort rows by Start time (UTC) header in descending order
Start Az.
Max El. time (UTC)
Max El. Az.
Max El.
End time (UTC)
End Az.
14 mins2024-12-26 11:01:02.386Z186.86° SSW2024-12-26 11:08:02.386Z328.034° NNW44.916°2024-12-26 11:15:02.386Z7.106° NNE
6 mins2024-12-26 12:56:02.386Z272.446° WNW2024-12-26 12:59:02.386Z299.342° NW14.278°2024-12-26 13:02:02.386Z325.216° NNW
8 mins2024-12-26 20:38:02.386Z32.711° NE2024-12-26 20:42:02.386Z73.589° E20.432°2024-12-26 20:46:02.386Z110.59° ESE
13 mins2024-12-26 22:26:02.386Z345.189° N2024-12-26 22:32:02.386Z261.334° W42.707°2024-12-26 22:39:02.386Z186.324° SSW
|